Wind_Speed
58 68 77 82 86 87 89 89 86 84 82 79 74 74 75 73 73 73 72 70 68 65 62 61 61 61 62 61 59 59 55 52 49 48 52 49 46 43
45 53 62 70 77 81 85 87 88 87 85 82 78 74 74 75 73 72 73 73 71 69 67 65 63 62 63 63 63 62 59 59 55 51 44 48 48 47
38 41 48 54 62 71 77 81 84 86 85 82 81 79 75 76 74 71 72 73 72 70 69 69 68 67 67 66 66 64 62 58 55 55 49 52 53 54
37 37 40 42 45 51 60 71 79 83 84 81 79 80 78 78 76 73 72 71 71 68 68 68 69 69 69 69 67 66 66 63 61 60 66 68 60 59
39 38 38 39 39 41 47 55 65 75 82 83 80 79 79 79 78 78 77 74 73 71 70 68 69 71 72 72 71 70 70 66 67 70 68 68 66 63
40 42 42 41 42 42 43 47 53 61 69 77 77 77 83 82 76 74 76 77 76 74 73 71 72 73 72 70 73 75 75 72 71 67 64 66 66 64
44 43 44 43 42 43 46 48 50 56 59 65 69 66 75 78 76 69 68 69 73 73 75 74 73 76 75 71 70 71 73 74 73 72 69 69 67 64
45 44 44 42 41 45 49 48 47 53 51 54 69 69 67 69 71 70 69 69 71 73 74 75 75 72 74 76 73 71 71 72 72 73 73 74 73 73
42 42 41 40 39 35 35 36 38 49 48 49 53 61 63 65 65 66 70 76 75 72 72 72 74 73 74 74 71 69 70 71 72 73 73 73 74 76
40 40 37 35 36 35 39 40 39 47 51 56 55 56 57 56 63 64 58 64 72 72 70 68 69 69 70 71 72 74 73 74 74 75 75 76 77 78
42 40 38 38 36 41 46 40 39 48 53 56 55 58 58 60 55 52 55 63 66 69 70 70 69 67 68 68 68 69 69 71 73 74 75 75 77 78
44 44 45 46 40 40 41 37 38 44 51 54 50 52 49 47 54 62 59 57 60 60 59 61 64 62 59 64 68 68 67 67 68 70 72 73 74 74
45 46 49 50 47 42 39 40 40 41 43 43 46 50 51 49 48 51 54 55 54 56 58 60 59 58 58 59 60 60 60 63 63 65 68 69 69 68
46 46 48 51 51 47 43 42 42 43 43 44 47 49 49 50 53 54 52 53 56 58 60 58 57 58 60 62 61 60 58 60 58 56 57 58 59 60
46 46 47 48 50 51 48 46 44 43 43 43 43 45 46 47 50 53 54 54 56 57 59 61 62 62 62 60 57 57 58 57 55 55 55 55 54 54
43 46 47 47 47 49 51 51 48 46 46 46 45 44 44 43 44 47 48 51 51 50 52 55 56 57 58 59 56 54 54 52 52 51 50 50 51 52
40 44 46 48 47 47 48 50 52 50 49 50 50 50 50 48 46 46 48 49 49 49 47 46 44 46 51 53 53 53 52 51 50 50 50 48 48 49
30 40 44 47 49 49 48 48 49 53 55 54 54 54 53 53 52 51 50 50 49 49 50 49 47 47 50 52 52 50 49 48 47 48 49 50 49 47
21 29 39 45 48 51 51 50 48 48 52 58 61 59 57 55 54 54 55 54 53 50 49 48 48 48 50 50 49 48 47 47 48 50 52 53 52 50
15 20 28 38 46 49 51 52 51 49 47 48 55 61 59 57 55 53 54 57 55 52 50 48 47 47 47 47 47 47 45 44 46 48 50 50 51 49
12 15 20 27 37 46 49 51 52 52 49 47 48 54 58 58 55 53 52 55 55 51 49 47 46 46 45 45 44 42 42 41 42 44 45 45 45 45
9 11 14 18 25 35 46 50 52 53 53 52 49 49 50 52 51 50 49 50 49 48 47 46 46 45 44 43 42 42 42 41 40 39 38 37 38 40
9 7 8 12 16 23 34 45 51 53 54 55 53 51 50 49 49 49 48 47 46 46 45 45 44 44 42 41 40 39 39 39 38 37 35 35 37 40
Wind_Direction
235 237 239 241 243 245 245 244 244 242 238 235 234 235 236 236 237 237 237 237 237 237 236 237 236 237 240 240 241 242 243 244 249 245 234 245 242 241
229 234 238 240 242 244 245 246 245 244 240 237 235 234 236 236 236 237 237 237 237 238 238 238 238 238 240 241 240 241 240 241 243 244 237 239 243 245
226 229 233 236 239 239 240 241 242 242 242 238 236 235 235 236 236 236 237 238 237 237 238 239 239 239 240 241 242 240 240 242 241 236 237 240 250 251
229 228 228 230 234 238 239 239 239 239 239 239 237 237 236 236 236 236 235 237 237 236 237 238 238 238 239 239 240 240 239 237 235 240 244 249 253 251
231 231 231 230 231 235 236 237 237 236 235 235 234 235 234 235 236 236 237 236 235 235 236 237 238 238 238 238 238 238 238 237 236 239 245 250 248 244
232 232 232 233 236 238 239 239 240 237 234 232 230 231 233 232 231 232 234 235 235 235 235 236 237 238 239 240 241 243 243 239 240 242 242 240 240 241
234 236 235 236 240 243 246 246 245 234 229 226 219 219 226 228 227 224 225 228 231 231 232 233 236 239 239 238 238 240 243 244 243 242 239 240 245 247
231 234 235 237 240 247 250 249 240 224 216 217 214 216 221 224 225 224 220 219 222 226 230 232 232 232 238 242 240 238 238 240 243 243 244 248 252 254
227 229 233 238 245 247 235 223 220 208 205 204 209 216 219 219 218 216 219 222 223 224 226 230 233 234 236 241 243 242 241 242 243 244 246 248 251 253
220 223 227 230 227 216 206 204 203 207 208 204 199 200 208 214 216 216 213 221 227 225 226 229 231 233 235 238 238 239 243 246 247 248 249 250 252 254
214 214 217 211 211 212 209 211 208 202 209 204 201 200 209 205 208 206 215 224 227 228 229 232 233 235 237 239 240 240 242 244 246 248 250 252 254 255
212 209 211 210 212 210 215 220 217 209 206 213 219 215 208 208 205 203 208 217 222 222 222 226 230 231 234 237 239 240 242 244 246 249 252 254 256 257
213 211 211 211 214 214 215 216 214 210 208 205 209 213 214 213 208 209 210 210 211 215 219 223 225 225 228 237 240 241 244 246 248 251 253 255 257 258
214 213 214 213 214 214 211 209 212 210 206 203 202 204 205 209 210 211 213 213 213 215 219 227 232 234 237 241 243 242 242 247 251 251 249 252 255 255
214 211 214 215 215 216 213 209 208 211 213 209 206 207 207 207 209 210 211 212 216 219 222 226 232 236 241 243 244 246 248 250 252 252 251 250 247 248
219 215 214 215 216 217 218 216 213 212 212 213 214 215 214 213 214 213 215 216 219 223 227 230 234 238 241 242 242 243 246 247 245 244 243 243 246 249
226 220 217 218 217 217 216 217 218 217 215 213 214 216 217 217 220 220 222 223 224 228 233 235 238 240 240 237 236 238 241 242 243 243 245 249 249 249
233 228 222 219 220 219 218 217 216 217 217 215 214 214 217 219 220 222 226 229 231 232 235 239 240 240 239 237 235 237 240 242 244 245 248 249 248 248
241 233 229 223 221 221 221 220 219 218 217 218 217 216 217 220 222 224 225 228 230 232 235 236 238 240 238 238 240 242 244 246 248 250 250 251 250 249
253 241 234 230 225 223 222 223 222 221 221 222 223 222 220 221 223 227 230 230 229 231 234 234 236 237 239 240 242 244 248 252 254 253 252 252 249 247
265 252 240 233 229 226 223 222 224 224 223 223 223 223 223 225 226 228 231 230 228 229 231 233 235 236 237 239 241 243 249 254 256 253 251 250 246 244
284 263 249 240 233 228 226 223 222 224 224 223 223 223 223 224 225 227 227 224 223 224 225 229 232 233 234 237 240 244 249 253 254 250 247 243 238 237
349 312 267 246 239 232 226 225 224 223 224 225 225 225 225 224 224 224 224 222 221 222 223 225 227 229 233 237 240 244 248 251 251 245 242 239 239 236
Height
5467 5476 5487 5498 5509 5519 5528 5538 5549 5560 5573 5585 5594 5602 5611 5621 5629 5637 5646 5655 5664 5672 5680 5688 5695 5701 5706 5712 5718 5721 5728 5733 5737 5741 5743 5751 5755 5758
5453 5460 5469 5478 5488 5498 5507 5517 5526 5539 5553 5567 5576 5585 5594 5603 5612 5621 5630 5639 5648 5657 5666 5673 5681 5688 5693 5698 5704 5709 5715 5719 5727 5733 5731 5738 5743 5747
5441 5447 5454 5461 5470 5477 5486 5496 5506 5518 5534 5547 5557 5569 5579 5587 5597 5605 5614 5622 5632 5641 5650 5658 5666 5673 5678 5684 5688 5695 5703 5708 5715 5719 5719 5725 5733 5738
5430 5436 5441 5448 5455 5461 5468 5476 5486 5499 5512 5525 5537 5550 5561 5571 5580 5588 5597 5606 5616 5626 5635 5643 5650 5656 5663 5669 5675 5681 5688 5694 5701 5705 5708 5717 5721 5726
5419 5424 5430 5436 5443 5448 5455 5462 5469 5478 5490 5505 5517 5530 5542 5553 5563 5571 5580 5589 5599 5609 5618 5627 5634 5641 5647 5654 5660 5667 5672 5680 5687 5690 5696 5702 5707 5712
5408 5413 5419 5425 5430 5436 5443 5449 5454 5462 5472 5486 5498 5509 5521 5534 5545 5554 5563 5573 5584 5593 5602 5610 5616 5623 5632 5639 5647 5653 5658 5664 5670 5675 5681 5686 5691 5696
5396 5401 5406 5412 5417 5423 5427 5432 5439 5446 5455 5468 5480 5491 5500 5514 5527 5538 5548 5557 5567 5575 5584 5593 5601 5608 5616 5623 5629 5636 5643 5650 5656 5662 5667 5671 5676 5681
5381 5387 5392 5399 5405 5408 5412 5417 5421 5431 5445 5453 5464 5475 5484 5496 5511 5523 5534 5543 5553 5560 5567 5575 5583 5592 5597 5606 5614 5621 5628 5634 5640 5646 5651 5656 5660 5665
5367 5374 5380 5386 5391 5394 5398 5404 5410 5420 5432 5442 5452 5458 5470 5483 5499 5511 5518 5526 5537 5545 5553 5559 5568 5576 5583 5591 5597 5605 5612 5619 5624 5629 5634 5639 5644 5649
5356 5363 5369 5374 5379 5385 5391 5396 5402 5411 5420 5431 5443 5448 5461 5471 5484 5496 5503 5508 5522 5530 5536 5544 5551 5560 5569 5576 5583 5589 5595 5602 5607 5612 5617 5623 5628 5632
5344 5353 5359 5365 5370 5375 5381 5388 5395 5403 5412 5420 5431 5441 5451 5463 5473 5481 5487 5494 5504 5514 5523 5531 5537 5546 5553 5560 5566 5574 5581 5586 5591 5594 5600 5606 5611 5616
5333 5341 5347 5354 5361 5368 5375 5382 5388 5395 5403 5412 5420 5430 5440 5449 5458 5466 5474 5483 5492 5501 5511 5518 5525 5534 5539 5545 5552 5559 5565 5570 5574 5579 5585 5591 5595 5599
5322 5329 5337 5344 5352 5359 5367 5374 5380 5387 5395 5403 5411 5420 5430 5439 5448 5456 5464 5473 5481 5490 5498 5505 5513 5520 5526 5532 5538 5544 5549 5554 5558 5563 5570 5575 5578 5583
5310 5319 5327 5334 5342 5351 5358 5366 5373 5381 5388 5395 5404 5413 5421 5429 5438 5446 5454 5462 5470 5478 5486 5493 5500 5507 5514 5519 5525 5531 5536 5540 5545 5550 5556 5561 5564 5567
5298 5309 5316 5323 5331 5340 5348 5356 5365 5372 5381 5388 5396 5405 5413 5420 5428 5437 5445 5452 5459 5466 5474 5481 5488 5495 5501 5507 5513 5517 5522 5527 5532 5536 5542 5547 5551 5554
5288 5298 5305 5313 5321 5329 5338 5347 5355 5363 5371 5380 5387 5396 5404 5411 5419 5427 5435 5442 5450 5457 5464 5470 5476 5482 5488 5493 5499 5505 5510 5515 5520 5524 5528 5533 5537 5540
5278 5286 5296 5304 5312 5320 5328 5336 5345 5353 5361 5370 5378 5386 5394 5401 5410 5418 5425 5433 5440 5446 5452 5458 5463 5469 5475 5481 5487 5494 5499 5504 5509 5513 5517 5521 5524 5527
5270 5276 5283 5291 5300 5308 5317 5325 5334 5342 5351 5359 5367 5375 5383 5391 5399 5406 5414 5422 5428 5435 5441 5446 5452 5458 5464 5470 5476 5482 5487 5492 5497 5501 5504 5507 5510 5513
5264 5268 5273 5280 5288 5297 5305 5314 5323 5331 5339 5347 5356 5364 5372 5380 5388 5395 5402 5410 5417 5423 5428 5435 5442 5447 5453 5459 5465 5470 5475 5480 5484 5487 5490 5493 5496 5500
5259 5262 5266 5271 5278 5286 5295 5303 5311 5320 5328 5335 5343 5351 5360 5368 5376 5383 5390 5397 5404 5410 5417 5424 5431 5437 5443 5449 5454 5459 5463 5466 5469 5473 5476 5479 5482 5487
5255 5257 5259 5263 5268 5275 5283 5291 5300 5308 5317 5325 5332 5339 5347 5355 5362 5370 5376 5383 5391 5399 5406 5412 5419 5426 5432 5438 5443 5447 5451 5454 5457 5460 5463 5466 5470 5474
5252 5253 5254 5256 5259 5265 5272 5280 5288 5297 5306 5314 5322 5329 5336 5343 5350 5357 5364 5371 5379 5386 5394 5400 5407 5414 5421 5427 5432 5436 5440 5444 5446 5448 5451 5455 5459 5463
5251 5250 5250 5252 5253 5256 5262 5269 5277 5285 5293 5302 5309 5317 5324 5331 5338 5346 5354 5362 5369 5376 5383 5390 5397 5404 5410 5416 5421 5426 5429 5432 5435 5438 5442 5446 5450 5454